Location: Banios
(43.0451°N, 0.2335°E)
Time: 23:38:58
(UTC+00:00)

X-37B - Visible Passes

Search period start: 07 December 2021 00:00
Search period end: 17 December 2021 00:00
Orbit: 329 x 342 km, 45.0° (Epoch: 06 December)

Date Brightness Start Highest point End Pass type
(mag) Time Alt. Az. Time Alt. Az. Time Alt. Az.
07 Dec 2.4 17:14:11 10° SSW 17:16:15 18° SSE 17:18:12 11° ESE visible
07 Dec 3.3 18:48:34 10° WSW 18:49:26 18° WSW 18:49:26 18° WSW visible
08 Dec 1.1 17:33:46 10° SW 17:36:30 40° SSE 17:37:49 24° E visible
09 Dec 0.2 17:54:00 10° WSW 17:56:54 84° SSE 17:57:23 58° E visible
10 Dec 1.0 18:14:31 10° W 18:16:56 51° NW 18:16:56 51° NW visible
11 Dec 0.3 16:59:26 10° WSW 17:02:20 84° SSE 17:05:14 10° ENE visible
11 Dec 2.6 18:35:05 10° WNW 18:36:28 24° WNW 18:36:28 24° WNW visible
12 Dec 0.5 17:19:57 10° W 17:22:49 62° N 17:24:47 18° ENE visible
12 Dec 3.7 18:55:36 10° WNW 18:56:01 13° WNW 18:56:01 13° WNW visible
13 Dec 0.6 17:40:31 10° W 17:43:22 54° N 17:44:22 33° ENE visible
14 Dec 0.3 18:01:02 10° WNW 18:03:55 64° N 18:03:59 64° NNE visible
15 Dec 1.3 18:21:30 10° WNW 18:23:42 47° W 18:23:42 47° W visible
16 Dec 0.4 17:06:28 10° WNW 17:09:21 64° N 17:12:14 10° E visible
16 Dec 2.8 18:42:04 10° W 18:43:31 23° WSW 18:43:31 23° WSW visible
